Selinsgrove, PA

5:35 PM EST on December 06, 2019 (GMT -0500)
Penn Valley

Weather History for KSEG - October, 2019

Change the Weather History Date:

Wednesday, October 9, 2019

  Actual Average (KIPT) Record (KIPT)
Temperature  
Mean Temperature 57 °F -  
Max Temperature 68 °F 63 °F 89 °F (2007)
Min Temperature 45 °F 42 °F 26 °F (1935)
Degree Days  
Heating Degree Days 8    
Growing Degree Days 7 (Base 50)    
Moisture  
Dew Point 45 °F    
Average Humidity 73    
Maximum Humidity 93    
Minimum Humidity 42    
Precipitation  
Precipitation 0.00 in - - ()
Sea Level Pressure  
Sea Level Pressure 30.28 in    
Wind  
Wind Speed 4 mph (North)    
Max Wind Speed 9 mph    
Max Gust Speed -    
Visibility 10 miles    
Events      
Averages and records for this station are not official NWS values.
T = Trace of Precipitation, MM = Missing Value Source: NWS Daily Summary

Daily Weather History Graph

Daily Weather History Graph

Search for Another Location

Airport or City:

Astronomy

Oct. 09, 2019 Rise Set
Actual Time 7:12 AM EDT 6:36 PM EDT
Civil Twilight 6:44 AM EDT 7:04 PM EDT
Nautical Twilight 6:12 AM EDT 7:35 PM EDT
Astronomical Twilight 5:40 AM EDT 8:07 PM EDT
Moon 5:09 PM EDT (10/9) 2:54 AM EDT (10/9)
Length of Visible Light 12h 19m
Length of Day
11h 24m
Waxing Gibbous, 85% of the Moon is Illuminated
Oct 9
Waxing Gibbous
Oct 13
Full
Oct 21
Last Quarter
Oct 27
New
Nov 4
First Quarter

Hourly Weather History & Observations

Time (EDT) Temp. Windchill Dew Point Humidity Pressure Visibility Wind Dir Wind Speed Gust Speed Precip Events Conditions
12:53 AM 50.0 °F - 48.0 °F 93% 30.27 in 10.0 mi NW 3.5 mph - N/A   Clear
1:53 AM 50.0 °F - 46.9 °F 89% 30.27 in 10.0 mi North 3.5 mph - N/A   Clear
2:53 AM 50.0 °F - 46.9 °F 89% 30.26 in 10.0 mi NNW 4.6 mph - N/A   Clear
3:53 AM 48.9 °F - 46.9 °F 93% 30.27 in 10.0 mi Calm Calm - N/A   Clear
4:53 AM 48.9 °F - 46.0 °F 90% 30.27 in 10.0 mi NNE 3.5 mph - N/A   Clear
5:53 AM 48.9 °F - 45.0 °F 86% 30.29 in 10.0 mi Calm Calm - N/A   Partly Cloudy
6:53 AM 48.0 °F - 45.0 °F 89% 30.29 in 10.0 mi Calm Calm - N/A   Partly Cloudy
7:53 AM 48.0 °F - 45.0 °F 89% 30.31 in 10.0 mi North 3.5 mph - N/A   Scattered Clouds
8:53 AM 51.1 °F - 45.0 °F 80% 30.32 in 10.0 mi North 3.5 mph - N/A   Partly Cloudy
9:53 AM 54.0 °F - 45.0 °F 72% 30.33 in 10.0 mi Calm Calm - N/A   Clear
10:53 AM 57.9 °F - 44.1 °F 60% 30.33 in 10.0 mi NNE 9.2 mph - N/A   Clear
11:53 AM 61.0 °F - 45.0 °F 56% 30.30 in 10.0 mi North 4.6 mph - N/A   Clear
12:53 PM 64.9 °F - 46.0 °F 50% 30.29 in 10.0 mi NNW 4.6 mph - N/A   Clear
1:53 PM 66.0 °F - 45.0 °F 47% 30.26 in 10.0 mi North 8.1 mph - N/A   Clear
2:53 PM 66.0 °F - 43.0 °F 43% 30.25 in 10.0 mi Variable 4.6 mph - N/A   Clear
3:53 PM 66.9 °F - 43.0 °F 42% 30.23 in 10.0 mi NE 6.9 mph - N/A   Clear
4:53 PM 68.0 °F - 44.1 °F 42% 30.23 in 10.0 mi NNE 9.2 mph - N/A   Clear
5:53 PM 64.0 °F - 46.0 °F 52% 30.24 in 10.0 mi NE 4.6 mph - N/A   Clear
6:53 PM 60.1 °F - 42.1 °F 51% 30.26 in 10.0 mi East 8.1 mph - N/A   Scattered Clouds
7:53 PM 55.9 °F - 43.0 °F 62% 30.28 in 10.0 mi East 4.6 mph - N/A   Clear
8:53 PM 48.9 °F - 45.0 °F 86% 30.28 in 10.0 mi Calm Calm - N/A   Clear
9:53 PM 46.9 °F - 45.0 °F 93% 30.30 in 10.0 mi NNW 3.5 mph - N/A   Clear
10:53 PM 46.0 °F 44.8 °F 44.1 °F 93% 30.31 in 10.0 mi NNW 3.5 mph - N/A   Clear
11:53 PM 45.0 °F - 43.0 °F 93% 30.32 in 10.0 mi Calm Calm - N/A   Clear